Location: Croisilles
(50.1998°N, 2.8793°E)
Time: 12:58:32
(UTC+00:00)

USA 234 - Pass Details

Date: 21 January 2021
Orbit: 1100 x 1107 km, 123.0° (Epoch: 25 February)

Event Time Altitude Azimuth Distance (km) Brightness Sun altitude
Exits shadow 19:42:59 80° 7° (N) 1,122 3.1 -31.4°
Drops below altitude 10° 19:49:24 10° 302° (WNW) 2,968 6.2 -32.4°
Sets 19:51:53 0° 302° (WNW) 3,929 7.1 -32.8°
